Regional Weather Roundup
Issued by NWS Northern Indiana

Home | Current Version | Previous Version | Graphics & Text | Print | Product List | Glossary On
Versions: 1 2 3 4 5 6 7 8 9 10 11 12 13 14 15 16 17 18 19 20 21 22 23 24 25 26 27 28 29 30 31 32 33 34 35 36 37 38 39 40 41 42 43 44 45 46 47 48 49 50
699
ASUS43 KIWX 111710
RWRIWX

KIWX WEATHER ROUNDUP
NATIONAL WEATHER SERVICE NORTHERN INDIANA
1200 PM EST THU FEB 11 2016

NOTE: "FAIR" INDICATES FEW OR NO CLOUDS BELOW 12,000 FEET WITH NO
SIGNIFICANT WEATHER AND/OR OBSTRUCTIONS TO VISIBILITY.

* THESE STATIONS ARE NOT UNDER NWS QUALITY CONTROL. THEY ALSO MAY NOT
  REPORT WEATHER SUCH AS PRECIPITATION OR FOG.

INZ001>027-111800-
NORTHERN INDIANA

CITY           SKY/WX    TMP DP  RH WIND       PRES   REMARKS
GARY*          MOSUNNY   19   7  58 NW10      30.33R WCI   8
VALPARAISO     PTSUNNY   19  10  68 NW13      30.30R WCI   6
MICHIGAN CITY* CLOUDY    21  10  63 N9        30.29S WCI  11
LAPORTE*       LGT SNOW  21  17  83 W10       30.28S WCI  10
KNOX*          MOSUNNY   19   9  63 W10       30.30R WCI   8
SOUTH BEND     LGT SNOW  18  12  77 W8        30.27S VSB 1   WCI   8
ELKHART*       CLOUDY    19  10  68 SW7       30.26R WCI  10
GOSHEN         CLOUDY    17  10  74 W8        30.26R WCI   7
MONTICELLO*    SUNNY     20   6  54 NW9       30.30S WCI   9
LOGANSPORT*    SUNNY     21   5  49 NW5       30.30S WCI  15
ROCHESTER*     MOSUNNY   21   9  58 W8        30.28S WCI  12
WARSAW*        MOSUNNY   21  10  63 NW7       30.26S WCI  13
ANGOLA*        CLOUDY    18   7  62 NW5       30.22S WCI  11
FORT WAYNE     LGT SNOW  29  11  47 NW6       30.27S WCI  23
HUNTINGTON*    MOSUNNY   19   7  58 NW7       30.27F WCI  10
PERU/GRISSOM   MOSUNNY   19  10  67 NW10      30.27R WCI   7
MARION*        SUNNY     17   3  54 NW6       30.29S WCI   9

$$
INZ028>050-111800-
CENTRAL INDIANA

CITY           SKY/WX    TMP DP  RH WIND       PRES   REMARKS
LAFAYETTE      SUNNY     20   5  52 N9        30.32R WCI   9
KOKOMO*        SUNNY     19  10  68 NW8       30.28S WCI   9
MUNCIE*        MOSUNNY   19   8  62 NW10      30.28R WCI   7
INDIANAPOLIS   MOSUNNY   21   5  50 CALM      30.29S

$$
MIZ043>046-050>051-056>058-064>065-071>073-077>080-111800-
SOUTHWEST LOWER MICHIGAN

CITY           SKY/WX    TMP DP  RH WIND       PRES   REMARKS
BATTLE CREEK   CLOUDY    19   6  57 NW10      30.22S WCI   7
BENTON HARBOR  CLOUDY    21   8  57 NW7       30.27R WCI  12
COLDWATER*     CLOUDY    19   6  59 NW8       30.23R WCI   8
HILLSDALE*     CLOUDY    17   4  56 W10       30.19S WCI   5
HOLLAND        CLOUDY    21   7  54 VRB6      30.25R WCI  13
GRAND RAPIDS   PTSUNNY   20   5  52 NW7       30.22R WCI  11
KALAMAZOO      CLOUDY    18   7  62 NW6       30.24R WCI  10
STURGIS*       LGT SNOW  16  10  74 W6        30.24R WCI   8
THREE RIVERS*  LGT SNOW  19  12  73 W3        30.26R

$$
OHZ001>008-015>018-024>025-111800-
NORTHWEST OHIO

CITY           SKY/WX    TMP DP  RH WIND       PRES   REMARKS
DEFIANCE       PTSUNNY   20   6  55 NW8       30.27R WCI  10
FINDLAY        CLOUDY    20   5  52 W10       30.24R WCI   9
TOLEDO EXPRESS CLOUDY    18   2  49 W13G20    30.24R WCI   5
TOLEDO METCALF PTSUNNY   20   2  45 NW17G23   30.25R WCI   5
LIMA           CLOUDY    19   8  62 W13       30.24R WCI   6

$$
AND FOR LAKE MICHIGAN COASTAL AND OPEN LAKE BUOY OBSERVATIONS

STATION/POSITION TEMP    WIND        PRES    VSBY  WAVE
                 AIR SEA DIR/SP/G                  HT/PER
                 (F)     (DEG/KT/KT) (MB)    (MI)  (FT/S)
CALUMET HARBOR           300/  7/  8 1026.0R
MICHIGAN CITY     20     310/ 10/ 12   N/A
BURNS HARBOR      17     300/ 14/ 19 1026.4R
SAINT JOSEPH      21     310/ 11/ 14 1025.1F

$$
&&




USA.gov is the U.S. government's official web portal to all federal, state and local government web resources and services.